Terug naar catalogus

ONEWEB-0534

ActiefCommunicatiePO
NORAD 55797·PAYLOAD·🇬🇧 United Kingdom

Gelanceerd Mar 9, 2023 vanaf Cape Canaveral Space Force Station

Loading…

Volgende Passages (komende 24 uur)

TLE

VersSource: CelesTrak SupGP

Epoch: Sep 14, 2026, 17:19 UTC

1 55797C 23029B   26257.72201806 -.00000139  00000+0 -34247-3 0  2571
2 55797  87.9127 256.6019 0002056  87.2525  24.9604 13.20770286    12

Volg ONEWEB-0534 in realtime met AllMySat

Download on the App Store